Content
SEND FEEDBACK

Daily
Averages
Monthly
Summary
Canada

ELBOW, SASKATCHEWAN


Home > North America > Canada > Saskatchewan
Elevation: 1929 feet     Latitude: 51 01N     Longitude: 106 36W

WEATHER
 
SELECT A DAY
Number of Records: 139,332;   Date Range: 1/1/95 - 9/21/14
 
SHARE

PRINT THIS DATA

[ ← Previous Day ]
WEATHER ALMANAC - JANUARY 31, 2013
[ Next Day → ]
[ °C ]   °F
Weather ElementAverageHighLow
Temperature-15.1 °F4.1 °F (11:00 pm)-27.8 °F (7:00 am)
Dewpoint-19.6 °F1.9 °F (11:00 pm)-33.9 °F (7:00 am)
Humidity79.2 %91 % (10:00 pm)59 % (6:00 am)
Barometer30.38 in30.51 in (2:00 am)30.09 in (11:00 pm)
Wind Speed9.3 mph15 mph (1:00 am)
Weather ElementAverage
Wind DirectionSW (223.3 °)

Weather ElementTotal
Precipitation---
Heating Degree Days76.9 (Base 65)
Averaged from 27 records on January 31, 2013
WEATHER CONDITIONS BREAKOUT
WIND DIRECTION BREAKOUT
WEATHER BY HOUR - JANUARY 31, 2013
[ °C ]   °F
Local TimeTemperatureDewpointHumidityBarometerVisibilityWind DirectionWind SpeedGust SpeedPrecipitationEventsConditions
12:00 AM-22.2 °F-27.4 °F77 %30.47 inNW (310°)12.7 mph
1:00 AM-22.4 °F-27.8 °F76 %30.48 inNW (320°)15.0 mph
2:00 AM-23.1 °F-28.5 °F76 %30.51 inWNW (300°)13.8 mph
3:00 AM-23.3 °F-28.7 °F76 %30.49 inNW (310°)11.5 mph
4:00 AM-24.2 °F-29.7 °F75 %30.51 inWNW (300°)11.5 mph
5:00 AM-25.1 °F-30.6 °F75 %30.51 inWNW (290°)12.7 mph
6:00 AM-26.9 °F-32.8 °F73 %30.51 inWest (280°)9.2 mph
6:00 AM-27.0 °F-33.0 °F59 %30.51 inWest (280°)9.2 mph
7:00 AM-27.8 °F-33.9 °F73 %30.51 inWest (270°)9.2 mph
8:00 AM-26.3 °F-32.3 °F73 %30.51 inWest (270°)11.5 mph
9:00 AM-23.6 °F-29.0 °F76 %30.49 inWSW (250°)6.9 mph
10:00 AM-23.8 °F-29.4 °F75 %30.49 inSW (230°)6.9 mph
11:00 AM-21.3 °F-26.7 °F76 %30.47 inSW (220°)8.1 mph
12:00 PM-18.8 °F-23.8 °F78 %30.45 inSSW (210°)10.4 mph
12:00 PM-19.0 °F-24.0 °F67 %30.45 inSSW (210°)10.4 mph
1:00 PM-15.3 °F-20.0 °F79 %30.42 inSSW (210°)10.4 mph
2:00 PM-12.3 °F-16.4 °F82 %30.37 inSouth (190°)9.2 mph
3:00 PM-10.7 °F-14.6 °F83 %30.34 inSSW (200°)11.5 mph
4:00 PM-8.3 °F-11.9 °F84 %30.30 inSSE (160°)8.1 mph
5:00 PM-5.4 °F-8.5 °F87 %30.26 inSouth (190°)10.4 mph
6:00 PM-3.6 °F-6.5 °F87 %30.24 inSouth (180°)9.2 mph
6:00 PM-4.0 °F-7.0 °F83 %30.24 inSouth (180°)9.2 mph
7:00 PM-2.0 °F-4.7 °F88 %30.21 inSouth (180°)8.1 mph
8:00 PM0.0 °F-2.6 °F89 %30.18 inSouth (170°)5.8 mph
9:00 PM1.2 °F-1.3 °F89 %30.14 inSSE (150°)5.8 mph
10:00 PM3.0 °F0.9 °F91 %30.12 inSouth (170°)4.6 mph
11:00 PM4.1 °F1.9 °F91 %30.09 inCalm
Hourly data recorded from CWLE, located miles away from Elbow, Saskatchewan







STORIES FROM OUR PARTNERS